Easton, MD

2:54 PM EDT on September 15, 2019 (GMT -0400)
Easton / Newnam

Weather History for KESN - July, 2019

Change the Weather History Date:

Friday, July 26, 2019

  Actual Average Record
Temperature  
Mean Temperature 77 °F -  
Max Temperature 89 °F 86 °F 94 °F (1966)
Min Temperature 65 °F 66 °F 50 °F (1976)
Cooling Degree Days 12    
Growing Degree Days 27 (Base 50)    
Moisture  
Dew Point 64 °F    
Average Humidity 73    
Maximum Humidity 94    
Minimum Humidity 31    
Precipitation  
Precipitation 0.00 in - - ()
Sea Level Pressure  
Sea Level Pressure 30.27 in    
Wind  
Wind Speed 1 mph (NE)    
Max Wind Speed 9 mph    
Max Gust Speed -    
Visibility 10 miles    
Events      
Averages and records for this station are not official NWS values.
T = Trace of Precipitation, MM = Missing Value Source: NWS Daily Summary

Daily Weather History Graph

Daily Weather History Graph

Search for Another Location

Airport or City:

Astronomy

Jul. 26, 2019 Rise Set
Actual Time 6:00 AM EDT 8:21 PM EDT
Civil Twilight 5:29 AM EDT 8:51 PM EDT
Nautical Twilight 4:52 AM EDT 9:28 PM EDT
Astronomical Twilight 4:11 AM EDT 10:09 PM EDT
Moon 1:10 AM EDT (7/26) 3:04 PM EDT (7/26)
Length of Visible Light 15h 21m
Length of Day
14h 20m
Waning Crescent, 34% of the Moon is Illuminated
Jul 26
Waning Crescent
Jul 31
New
Aug 7
First Quarter
Aug 15
Full
Aug 23
Last Quarter

Hourly Weather History & Observations

Time (EDT) Temp. Heat Index Dew Point Humidity Pressure Visibility Wind Dir Wind Speed Gust Speed Precip Events Conditions
12:18 AM 71.1 °F - 66.6 °F 86% 30.23 in 10.0 mi Calm Calm - N/A   Clear
12:38 AM 70.7 °F - 66.4 °F 86% 30.23 in 10.0 mi Calm Calm - N/A   Clear
12:58 AM 69.8 °F - 65.7 °F 87% 30.23 in 10.0 mi Calm Calm - N/A   Clear
1:18 AM 70.0 °F - 66.6 °F 89% 30.23 in 10.0 mi Calm Calm - N/A   Clear
1:38 AM 69.6 °F - 66.4 °F 89% 30.24 in 10.0 mi Calm Calm - N/A   Clear
1:58 AM 69.3 °F - 66.4 °F 91% 30.24 in 10.0 mi Calm Calm - N/A   Clear
2:18 AM 69.1 °F - 66.4 °F 91% 30.24 in 10.0 mi Calm Calm - N/A   Clear
2:38 AM 68.7 °F - 65.8 °F 90% 30.23 in 10.0 mi Calm Calm - N/A   Clear
2:58 AM 68.4 °F - 65.8 °F 92% 30.23 in 10.0 mi Calm Calm - N/A   Clear
3:18 AM 68.2 °F - 66.2 °F 93% 30.24 in 10.0 mi Calm Calm - N/A   Clear
3:38 AM 68.2 °F - 66.0 °F 93% 30.24 in 10.0 mi Calm Calm - N/A   Clear
3:58 AM 68.0 °F - 65.8 °F 93% 30.23 in 10.0 mi Calm Calm - N/A   Clear
4:18 AM 67.3 °F - 65.1 °F 93% 30.24 in 10.0 mi Calm Calm - N/A   Clear
4:38 AM 67.1 °F - 64.9 °F 93% 30.24 in 10.0 mi Calm Calm - N/A   Clear
4:58 AM 66.2 °F - 63.9 °F 92% 30.24 in 10.0 mi Calm Calm - N/A   Clear
5:18 AM 66.4 °F - 64.6 °F 94% 30.25 in 10.0 mi Calm Calm - N/A   Clear
5:38 AM 66.0 °F - 63.7 °F 92% 30.26 in 10.0 mi Calm Calm - N/A   Clear
5:41 AM 65.7 °F - 63.7 °F 93% 30.26 in 10.0 mi Calm Calm - N/A   Clear
6:00 AM 66.2 °F - 64.4 °F 94% 30.27 in 10.0 mi Calm Calm - N/A   Clear
6:48 AM 66.2 °F - 64.4 °F 94% 30.27 in 10.0 mi Calm Calm - N/A   Clear
7:50 AM 73.4 °F - 68.0 °F 83% 30.28 in 10.0 mi Calm Calm - N/A   Clear
8:45 AM 78.8 °F - 68.0 °F 69% 30.29 in 10.0 mi North 4.6 mph - N/A   Clear
9:46 AM 82.4 °F 82.9 °F 60.8 °F 48% 30.30 in 10.0 mi North 5.8 mph - N/A   Clear
10:46 AM 84.2 °F 83.5 °F 57.2 °F 40% 30.31 in 10.0 mi Calm Calm - N/A   Clear
11:47 AM 87.8 °F 86.5 °F 57.2 °F 35% 30.31 in 10.0 mi North 8.1 mph - N/A   Partly Cloudy
12:50 PM 87.8 °F 86.5 °F 57.2 °F 35% 30.31 in 10.0 mi East 3.5 mph - N/A   Partly Cloudy
1:50 PM 87.8 °F 86.1 °F 55.4 °F 33% 30.30 in 10.0 mi Calm Calm - N/A   Partly Cloudy
2:50 PM 89.6 °F 87.7 °F 55.4 °F 31% 30.29 in 10.0 mi NE 4.6 mph - N/A   Partly Cloudy
3:47 PM 89.6 °F 87.7 °F 55.4 °F 31% 30.28 in 10.0 mi NNE 9.2 mph - N/A   Scattered Clouds
4:49 PM 86.0 °F 84.9 °F 57.2 °F 37% 30.28 in 10.0 mi Calm Calm - N/A   Scattered Clouds
5:47 PM 87.8 °F 86.5 °F 57.2 °F 35% 30.27 in 10.0 mi NE 3.5 mph - N/A   Scattered Clouds
6:45 PM 87.8 °F 86.5 °F 57.2 °F 35% 30.27 in 10.0 mi Calm Calm - N/A   Partly Cloudy
7:50 PM 82.4 °F 84.6 °F 66.2 °F 58% 30.28 in 10.0 mi SSE 8.1 mph - N/A   Partly Cloudy
8:50 PM 78.8 °F - 64.4 °F 61% 30.29 in 10.0 mi ESE 3.5 mph - N/A   Clear
9:45 PM 75.2 °F - 66.2 °F 73% 30.30 in 10.0 mi Calm Calm - N/A   Clear
10:18 PM 75.6 °F - 65.5 °F 71% 30.30 in 10.0 mi Calm Calm - N/A   Clear
10:38 PM 75.4 °F - 65.7 °F 72% 30.30 in 10.0 mi Calm Calm - N/A   Clear
10:58 PM 75.2 °F - 65.7 °F 72% 30.31 in 10.0 mi Calm Calm - N/A   Clear
11:18 PM 74.3 °F - 66.2 °F 76% 30.30 in 10.0 mi Calm Calm - N/A   Clear
11:38 PM 74.3 °F - 66.2 °F 76% 30.30 in 10.0 mi Calm Calm - N/A   Clear
11:58 PM 73.4 °F - 66.2 °F 78% 30.30 in 10.0 mi Calm Calm - N/A   Clear